Regional Weather Roundup
Issued by NWS

Home | Current Version | Previous Version | Graphics & Text | Print | Product List | Glossary On
Versions: 1 2 3 4 5 6 7 8 9 10 11 12 13 14 15 16 17 18 19 20 21 22 23 24 25 26 27 28 29 30 31 32 33 34 35 36 37 38 39 40 41 42 43 44 45 46 47 48 49 50
000
ASUS43 KOAX 230302
RWRNE

WEATHER ROUNDUP FOR NEBRASKA
NATIONAL WEATHER SERVICE OMAHA NE
1000 PM CDT WED MAR 22 2017

NOTES: SATELLITE DATA IS BEING USED TO AUGMENT CLOUD COVER ABOVE
       12000 FEET.
       "FAIR" INDICATES FEW OR NO CLOUDS BELOW 12,000 FEET WITH NO
       SIGNIFICANT WEATHER AND/OR OBSTRUCTIONS TO VISIBILITY.

  * THESE STATIONS DO NOT REPORT WEATHER SUCH AS RAIN...SNOW OR FOG.

NEZ001>004-019>022-054>056-230400-
NEBRASKA PANHANDLE

CITY           SKY/WX    TMP DP  RH WIND       PRES   REMARKS
SCOTTSBLUFF    CLOUDY    55  35  47 SE16      29.82R
ALLIANCE       CLOUDY    50  36  58 SE20G29   29.84S
CHADRON        CLOUDY    57  36  45 SE22G31   29.77S
KIMBALL        CLOUDY    56  38  52 S18G25    29.85S
SIDNEY         CLOUDY    51  37  58 S21       29.86S
$$

NEZ057>060-069>072-079>082-230400-
SOUTHWEST NEBRASKA

CITY           SKY/WX    TMP DP  RH WIND       PRES   REMARKS
NORTH PLATTE   CLOUDY    45  30  55 SE12      29.98F
IMPERIAL       CLOUDY    45  31  58 SE18      29.94S
LEXINGTON      CLOUDY    47  28  46 SE10      30.02F
MCCOOK         CLOUDY    47  32  56 SE13      30.00S
OGALLALA       CLOUDY    48  33  56 SE14G21   29.94R
$$

NEZ005>010-023>029-035>040-094-230400-
NORTH CENTRAL NEBRASKA

CITY           SKY/WX    TMP DP  RH WIND       PRES   REMARKS
VALENTINE      CLOUDY    46  29  51 S16       29.93R
AINSWORTH      CLOUDY    44  31  59 S15       29.95S
BROKEN BOW     CLOUDY    48  26  42 S17G25    30.00F
O`NEILL        CLOUDY    48  23  36 SE17G23   30.00F
ORD            CLOUDY    49  22  34 S14       30.03F
THEDFORD       CLEAR     45  31  58 S16G22    29.96R
$$

NEZ041-046>049-061>064-073>077-083>087-230400-
SOUTH CENTRAL NEBRASKA

CITY           SKY/WX    TMP DP  RH WIND       PRES   REMARKS
GRAND ISLAND   CLOUDY    51  24  34 SE15      30.08R
AURORA         CLOUDY    52  23  32 S18G25    30.08S
HASTINGS       CLOUDY    52  26  36 S17G23    30.08S
HEBRON         CLOUDY    51  24  34 SE15      30.11R
HOLDREGE       MOCLDY    48  27  43 SE14      30.04S
KEARNEY *      CLOUDY    50  25  37 S15       30.07R
YORK           CLOUDY    52  23  32 S18G24    30.09S
$$

NEZ011>018-030>034-042>045-230400-
NORTHEAST NEBRASKA

CITY           SKY/WX    TMP DP  RH WIND       PRES   REMARKS
NORFOLK        CLOUDY    45  25  45 SE17      30.07F
ALBION         CLOUDY    49  21  33 SE12      30.07S
BLAIR          CLOUDY    45  26  46 SE17G23   30.16S
FREMONT        CLOUDY    46  26  46 SE15G21   30.15R
TEKAMAH        CLOUDY    45  24  43 SE18      30.17S
WAYNE          CLOUDY    41  28  61 SE15      30.11S
$$

NEZ050>053-065>068-078-088>093-230400-
SOUTHEAST NEBRASKA

CITY           SKY/WX    TMP DP  RH WIND       PRES   REMARKS
LINCOLN        CLOUDY    51  26  37 SE16      30.15S
OMAHA EPPLEY   CLOUDY    46  24  42 SE20      30.18F
BEATRICE       CLOUDY    53  28  38 SE10G16   30.14R
FALLS CITY     CLOUDY    50  26  39 SE17      30.17S
NEBRASKA CITY  CLOUDY    47  18  31 SE16G24   30.18R
PLATTSMOUTH    CLOUDY    46  21  37 SE18      30.17S
$$

NEZ044-045-051>053-067-230400-
OMAHA AREA

CITY           SKY/WX    TMP DP  RH WIND       PRES   REMARKS
OMAHA EPPLEY   CLOUDY    46  24  42 SE20      30.18F
BLAIR          CLOUDY    45  26  46 SE17G23   30.16S
FREMONT        CLOUDY    46  26  46 SE15G21   30.15R
MILLARD        CLOUDY    48  28  45 SE14G26   30.17S
OFFUTT AFB     CLOUDY    46  24  42 SE18      30.17F
PLATTSMOUTH    CLOUDY    46  21  37 SE18      30.17S
WAHOO          CLOUDY    47  25  42 SE18      30.15R
$$



USA.gov is the U.S. government's official web portal to all federal, state and local government web resources and services.